RH
71 70 70 72 76 75 72 72 73 75 77 78 78 76 75 80 76 80 84 72 76 60 66 62 67 71 61 65 62 61 81 84 68 72 55 50 54 62 66 86 80 85 82 81 76
69 69 70 74 77 77 74 72 73 75 76 77 78 78 78 81 84 83 53 57 53 54 75 78 76 80 67 70 62 71 84 77 56 59 65 47 52 58 71 83 91 96 81 75 76
70 68 70 74 78 79 76 74 74 74 74 76 78 78 83 85 80 56 50 56 60 61 73 76 77 79 75 71 70 76 75 56 54 59 64 49 54 54 72 81 80 91 88 82 80
70 72 73 77 80 81 78 76 74 73 73 76 77 80 82 81 75 47 54 58 65 71 73 76 80 74 76 73 57 72 54 50 50 61 70 58 50 52 64 62 57 82 78 78 81
71 75 76 79 82 82 82 78 74 72 73 75 77 82 74 63 62 44 54 52 71 71 81 82 77 78 82 78 59 64 52 44 45 64 71 73 50 46 52 86 86 78 76 77 77
73 76 78 80 82 84 82 78 74 73 73 73 78 78 71 69 47 49 43 55 70 74 77 74 76 76 83 79 71 57 49 43 44 45 69 64 62 47 70 94 91 83 82 77 74
77 78 80 82 83 83 81 77 75 75 74 72 75 70 72 57 54 46 39 54 69 74 74 68 68 65 70 71 61 60 54 47 45 50 57 64 69 56 82 91 95 91 86 78 76
80 81 82 84 84 83 81 78 77 80 77 72 71 72 63 44 53 41 38 48 58 68 74 69 68 66 73 66 51 60 57 57 39 54 55 64 71 54 93 93 97 94 95 86 80
82 83 83 84 83 83 82 78 79 79 75 74 75 76 56 44 43 42 45 52 52 60 65 53 59 69 57 63 69 64 74 73 50 54 58 71 73 60 94 93 98 97 96 88 88
84 85 84 82 82 83 83 78 77 69 60 60 61 62 41 49 47 42 44 46 56 63 59 60 68 69 68 66 82 76 71 69 66 55 59 71 68 52 87 92 94 98 98 97 95
85 86 82 80 81 80 82 55 49 43 52 65 57 59 49 45 49 48 45 47 56 62 76 71 78 74 74 70 62 64 64 62 48 40 59 59 58 57 64 82 81 94 97 97 96
86 86 80 78 77 77 75 71 78 72 59 55 58 58 50 51 55 48 43 53 57 70 65 71 81 69 64 67 68 69 70 59 45 44 63 59 52 51 58 61 66 68 80 93 94
86 85 81 78 76 71 78 82 74 69 70 52 51 51 47 50 56 52 48 55 63 65 71 81 64 56 61 59 52 63 67 61 53 48 66 69 51 48 48 50 51 58 60 74 89
85 82 78 78 67 82 81 74 70 61 63 37 40 44 44 55 50 46 51 55 58 68 67 68 58 58 58 58 56 56 50 53 52 60 65 59 64 48 48 48 42 51 52 56 70
83 78 74 71 73 74 75 75 71 46 62 34 40 38 43 52 49 48 50 53 66 65 67 60 65 64 65 59 58 51 55 57 58 64 64 55 75 55 46 50 47 42 40 42 50
83 76 70 71 81 82 79 77 57 70 56 50 45 49 50 48 52 49 54 51 57 64 62 66 62 65 66 60 59 53 54 56 71 71 83 62 74 68 43 38 44 40 39 37 63
81 77 72 69 64 83 78 66 74 65 43 39 55 55 61 56 48 54 57 58 67 74 77 63 61 64 60 62 56 54 67 83 78 86 79 68 73 60 43 32 41 41 41 46 45
88 75 72 73 87 82 70 46 51 41 54 55 57 58 54 48 50 53 58 59 62 68 80 79 66 60 64 71 70 67 63 81 65 74 64 59 70 56 43 58 60 56 59 64 54
80 89 80 77 78 77 50 70 47 41 52 58 53 52 49 44 45 46 66 61 65 69 71 68 58 55 66 66 61 64 71 63 62 75 68 59 45 31 40 46 61 59 70 78 92
78 85 80 78 80 62 51 51 47 56 56 59 61 58 58 49 42 43 47 48 54 50 56 57 66 57 60 66 66 66 55 63 77 71 64 64 56 63 39 41 56 63 71 85 94
93 70 81 78 67 54 52 48 52 52 49 52 57 57 53 54 49 46 40 44 53 54 56 54 60 54 65 68 60 63 65 57 59 61 63 60 60 50 51 50 56 66 75 91 95
90 42 77 76 61 77 51 50 53 46 54 51 57 49 55 58 47 44 45 43 50 54 52 51 56 69 50 59 67 68 63 52 65 56 58 53 56 48 57 55 66 67 77 91 94
61 74 79 60 48 47 57 52 48 47 46 48 51 54 50 43 45 42 42 52 55 53 54 48 52 64 52 56 62 61 63 56 56 62 58 57 48 35 60 70 79 75 84 90 94
65 53 62 75 67 47 61 44 49 53 44 42 40 43 43 42 41 44 41 42 58 54 58 50 52 44 58 48 43 51 51 60 56 82 65 54 43 33 34 33 54 80 88 91 91
83 53 70 55 55 69 66 48 52 48 51 46 46 42 39 47 44 44 42 37 59 60 60 51 58 62 54 49 48 46 46 49 64 57 58 44 48 35 32 31 37 69 89 90 90
62 74 71 69 60 76 70 54 49 48 48 53 48 44 47 46 36 32 39 54 49 64 60 58 56 57 55 47 50 51 48 50 50 50 60 52 47 31 31 53 65 79 90 90 88
97 90 67 54 62 64 53 48 43 54 44 44 45 46 55 46 42 41 40 43 47 44 58 59 65 59 63 57 58 61 51 53 49 49 49 56 42 41 44 44 49 57 88 89 84
Wind_Speed
9 10 11 12 12 13 13 14 15 16 16 16 15 13 12 12 7 3 2 6 9 13 8 6 3 6 2 2 1 1 0 4 8 10 7 2 4 1 2 7 2 2 4 5 19
8 9 10 12 12 12 13 14 14 15 15 15 15 13 13 11 2 3 5 8 10 11 5 5 5 7 2 2 1 2 1 4 4 5 8 3 3 7 5 5 2 3 7 16 19
8 8 10 11 11 12 12 13 13 14 14 14 14 14 13 4 3 4 13 15 14 5 1 2 3 1 1 1 2 2 2 2 4 3 1 3 3 2 8 3 6 8 15 16 18
8 8 9 10 11 12 12 12 12 13 13 14 15 16 8 2 3 4 14 15 10 4 2 2 2 3 2 0 3 0 3 2 5 4 2 1 3 4 5 3 3 11 15 19 20
6 7 9 9 11 11 12 12 12 12 12 14 14 17 3 4 4 6 15 9 3 3 3 2 3 1 2 3 4 2 2 3 5 5 0 1 2 6 4 4 7 17 16 15 15
7 6 8 9 10 11 12 12 12 12 11 13 13 10 3 4 4 7 8 5 4 3 5 4 2 2 1 2 1 3 4 6 3 4 2 2 2 2 0 5 10 13 14 13 14
8 7 8 8 9 10 12 13 12 11 12 11 11 3 2 4 4 8 6 4 3 2 4 3 3 3 3 4 4 3 3 3 2 1 1 1 2 5 2 7 9 7 9 11 10
8 8 9 10 9 10 12 14 14 11 11 8 9 2 3 4 5 5 6 4 3 2 2 4 2 2 0 4 5 2 5 3 4 3 2 5 7 10 3 9 7 9 9 10 9
9 8 10 11 11 11 12 15 15 11 8 6 2 2 5 7 5 5 2 4 6 3 3 2 2 2 4 3 4 6 1 1 5 3 2 3 3 4 6 7 8 8 7 7 7
10 11 10 10 10 12 14 13 7 4 2 1 0 3 6 6 5 6 4 4 3 6 5 6 5 3 4 5 3 1 1 1 3 1 2 2 6 1 5 6 3 5 5 5 7
11 11 10 10 10 10 8 4 7 5 8 1 5 3 6 8 2 5 4 6 4 5 4 4 7 2 4 1 2 2 1 1 3 3 2 3 5 5 3 4 3 5 7 7 8
12 11 10 8 10 9 2 6 2 2 6 2 5 5 6 3 4 5 5 5 6 4 6 7 3 4 3 2 2 0 0 3 5 3 2 2 7 3 5 6 8 11 8 8 5
10 10 9 10 9 5 4 2 2 1 1 7 4 3 5 2 4 5 4 3 4 6 5 1 4 5 1 2 4 1 1 2 2 5 1 2 6 5 4 3 5 7 5 6 11
9 8 8 11 5 2 3 4 3 2 6 8 5 3 2 1 4 3 1 2 5 5 4 3 5 4 3 3 2 3 3 2 3 3 3 3 6 6 5 7 7 9 8 11 12
8 8 7 8 3 3 3 5 1 4 7 8 7 3 5 2 4 2 2 2 1 3 3 5 4 5 2 2 0 5 3 3 2 2 2 2 3 8 1 6 10 12 11 15 12
8 7 7 4 2 1 3 3 4 9 4 8 4 6 7 4 2 5 3 4 0 2 2 6 3 2 2 3 2 3 1 5 4 3 2 4 6 6 6 7 5 9 11 11 8
7 7 3 1 1 3 2 4 8 8 4 8 5 6 3 5 6 4 5 7 4 7 7 7 3 2 1 3 3 6 5 4 5 4 6 1 3 10 7 6 5 6 7 4 6
6 4 3 1 2 2 3 6 8 1 5 3 4 6 4 5 3 4 4 5 3 3 2 4 9 2 1 1 3 2 3 5 4 2 5 1 6 9 4 3 4 6 7 5 7
3 2 2 1 2 3 5 6 6 5 2 4 6 3 5 3 3 6 1 2 2 2 1 2 6 3 1 1 2 1 2 2 4 2 1 4 9 10 4 8 4 7 7 6 2
1 1 1 3 2 4 5 4 4 4 3 2 0 1 3 5 6 5 3 2 1 0 1 2 5 1 4 2 1 2 2 1 3 2 4 6 5 8 7 9 5 5 6 6 3
3 3 1 3 2 5 3 6 5 5 4 4 2 2 4 4 2 3 4 3 2 1 2 1 2 6 2 4 3 1 2 2 2 4 3 3 7 7 5 5 7 8 3 2 0
2 2 2 1 3 1 2 5 2 3 2 2 2 5 4 2 3 3 4 5 3 1 1 2 3 5 9 2 1 2 3 5 4 4 3 2 10 2 4 6 6 7 4 0 2
1 3 2 2 2 2 3 3 3 4 4 4 5 6 4 4 3 4 3 1 5 4 2 3 1 5 10 4 1 3 4 3 2 3 6 4 9 2 3 3 0 5 4 3 2
2 3 3 3 0 3 2 4 3 4 3 5 3 1 2 4 5 4 3 2 4 2 3 1 2 6 7 10 2 5 6 5 5 3 3 9 13 14 7 6 5 4 4 5 5
2 3 2 3 2 2 1 1 2 3 3 4 2 7 8 4 3 5 4 4 2 3 3 4 4 4 8 12 8 15 15 9 9 8 9 9 10 15 6 6 5 7 7 7 7
1 1 2 3 2 3 3 5 7 4 7 5 6 4 8 8 9 7 5 3 6 1 4 1 4 0 8 7 6 8 11 13 12 8 9 14 25 14 14 3 4 8 8 10 8
1 1 4 3 1 2 5 7 5 4 6 4 9 5 4 13 9 8 6 6 6 6 7 5 3 1 7 4 10 6 6 5 5 6 7 7 8 4 5 6 6 7 9 10 9
Wind_Direction
341 339 332 326 330 333 339 347 352 354 351 352 352 348 349 346 334 23 325 232 310 309 350 329 355 355 77 287 292 243 70 200 183 156 200 254 171 60 69 116 133 108 157 151 136
326 326 322 319 328 332 340 346 349 347 348 347 347 347 348 340 330 317 291 295 291 333 5 357 344 350 28 280 308 123 157 226 211 175 181 184 214 155 132 127 131 68 61 123 137
319 312 310 318 328 329 339 344 346 345 344 341 341 340 333 349 317 338 342 339 327 22 328 288 288 354 37 17 237 150 218 314 354 331 198 147 19 286 130 232 200 183 150 146 149
312 306 309 317 326 328 334 339 341 345 344 338 339 340 337 14 24 286 342 339 1 11 342 332 355 37 20 273 306 239 281 257 310 4 89 55 347 244 204 181 282 149 161 153 164
313 305 307 316 322 326 329 332 335 338 341 336 342 344 18 18 281 308 331 335 7 3 11 13 49 47 26 321 325 172 284 312 341 7 48 187 38 302 221 3 107 133 153 167 164
314 306 302 310 320 324 324 325 327 328 333 333 342 350 34 23 279 329 329 330 9 5 344 21 14 320 283 291 33 293 272 294 330 344 313 205 230 18 339 142 112 143 161 167 169
321 314 309 309 316 320 319 316 316 319 321 327 338 41 5 258 335 322 337 306 303 351 349 351 335 28 341 330 335 290 345 333 295 356 1 201 23 284 119 98 124 168 170 161 171
327 320 315 311 314 314 312 309 305 303 308 310 331 49 260 272 302 340 336 329 338 274 263 292 322 289 178 309 1 319 55 110 298 154 333 143 239 209 149 131 165 172 182 179 180
322 325 321 314 316 311 309 306 299 293 290 300 3 63 321 323 2 310 304 314 307 322 314 298 38 49 9 51 19 7 188 150 312 200 133 165 273 119 154 152 190 194 185 179 178
329 331 326 319 316 313 312 308 301 327 27 95 152 25 331 306 303 320 306 329 331 332 14 31 41 44 26 45 198 276 53 304 226 266 168 154 260 68 176 216 227 141 185 187 183
336 334 332 326 316 321 345 14 17 347 39 146 280 256 282 295 295 325 331 347 5 49 23 351 53 9 258 187 132 344 325 10 265 303 239 221 260 249 174 155 139 221 205 214 201
338 336 334 329 324 335 45 70 85 236 321 292 256 268 257 274 324 322 8 38 37 2 342 17 3 295 266 253 278 164 9 292 289 323 165 312 269 235 185 223 200 204 209 211 193
340 337 335 335 330 27 61 70 318 90 31 305 268 279 279 358 308 290 38 340 38 20 356 104 280 326 108 18 13 319 198 306 264 344 39 18 309 278 217 218 222 265 223 192 200
339 337 346 331 46 316 37 324 344 110 60 309 344 328 331 300 299 286 38 98 354 343 347 281 323 23 358 27 85 340 359 348 319 57 233 61 268 284 258 224 215 229 233 241 206
341 342 1 41 158 61 299 318 31 61 43 307 301 286 315 53 302 332 330 31 274 293 66 270 344 356 347 323 5 232 5 343 2 118 38 300 72 267 330 255 232 221 218 229 219
343 350 346 30 42 265 316 350 38 45 298 330 301 349 2 346 304 310 15 23 246 350 321 249 263 197 246 288 252 317 55 42 54 70 13 233 145 277 215 214 253 230 218 209 202
343 343 35 98 239 325 20 49 34 88 1 309 323 352 348 295 322 6 357 0 18 18 359 329 330 307 296 346 14 50 50 348 359 3 227 321 45 244 259 242 228 258 272 284 213
319 348 345 116 343 19 44 52 65 213 258 324 325 319 312 3 298 324 5 359 22 68 10 29 335 348 27 261 197 43 140 158 229 221 274 352 242 250 249 268 267 271 278 282 280
317 4 7 347 27 63 73 52 199 195 254 319 321 8 321 341 328 6 352 257 248 188 75 347 278 317 272 341 63 219 193 200 99 359 16 246 296 300 273 263 300 322 324 325 344
53 41 304 325 66 73 74 228 209 198 151 139 337 52 312 303 7 19 310 256 284 189 119 268 309 295 304 348 50 177 289 81 8 231 258 284 277 243 306 314 292 271 297 312 339
40 15 280 344 69 57 161 228 231 224 161 164 233 273 248 288 260 293 279 265 211 235 148 200 145 288 334 202 196 70 302 3 127 165 222 272 269 214 246 286 298 263 252 299 339
87 334 291 12 40 39 194 197 188 196 145 239 221 211 215 273 274 265 241 224 163 182 315 158 172 273 240 178 230 204 232 167 144 249 204 194 268 219 246 281 278 259 233 169 128
76 256 314 92 219 246 265 269 217 167 203 191 233 213 184 226 269 215 262 185 167 175 214 178 268 317 342 18 350 230 216 195 144 122 227 185 263 249 278 317 188 209 196 190 126
53 333 327 53 50 160 222 242 248 202 215 179 237 163 192 249 217 276 269 260 180 211 143 132 212 203 215 246 190 249 222 202 173 151 220 225 282 275 302 314 297 216 186 179 176
48 250 198 284 293 224 194 278 230 248 221 190 227 214 185 240 248 232 228 281 192 164 126 146 246 208 257 264 258 259 256 220 198 226 214 271 240 265 227 252 259 216 177 171 178
152 82 5 278 282 179 198 234 211 230 165 228 212 204 194 209 205 241 207 181 241 135 173 160 257 314 284 272 247 263 251 233 230 243 254 264 269 275 255 248 229 217 191 191 186
325 346 108 279 275 129 226 223 232 169 239 212 202 168 194 235 230 239 212 214 215 183 194 182 192 134 256 335 313 299 242 183 206 197 175 199 247 311 288 270 259 252 207 199 184